Location: Navajo
(48.7922°N, 105.0603°W)
Time: 16:35:04
(UTC+00:00)

KKS-1 - Pass Details

Date: 01 July 2022
Orbit: 635 x 648 km, 98.2° (Epoch: 09 August)

Event Time Altitude Azimuth Distance (km) Brightness Sun altitude
Rises 05:26:56 0° 11° (N) 2,978 ? -14.9°
Reaches altitude 10° 05:29:10 10° 9° (N) 2,062 ? -15.0°
Maximum altitude 05:33:37 66° 288° (WNW) 710 ? -15.3°
Enters shadow 05:37:21 14° 208° (SSW) 1,765 ? -15.5°
